When you browse on this site, cookies collect data to enhance your experience and personalize the content and advertising you see.
Visit our Privacy Policy to learn more. By continuing to use the site, you agree to this use of cookies and data.
  • In Schweiz
  • Länderverzeichnis
  • Für 7 Tage
  • Wassertemperatur
  • Wetterkarte
  • Widgets
  • user-avatar
    Anmelden

    Stündliche Wetter Xiongzhou

    Heute, 3 Juni, Mittwoch

    Zeit Temperatur Niederschläge Wind Luftdruck Luftfeuchtigkeit
    00:00 +26°C° 0 mm 1 m/S 744 mmHg 96%
    01:00 +26°C° 0 mm 1 m/S 744 mmHg 96%
    02:00 +26°C° 0 mm 1 m/S 744 mmHg 96%
    03:00 +25°C° 0 mm 1 m/S 744 mmHg 96%
    04:00 +25°C° 0 mm 1 m/S 744 mmHg 96%
    05:00 +25°C° 0 mm 1 m/S 744 mmHg 96%
    06:00 +26°C° 0.1 mm 1 m/S 744 mmHg 94%
    07:00 +27°C° 0.1 mm 1 m/S 744 mmHg 93%
    08:00 +28°C° 0 mm 2 m/S 745 mmHg 90%
    09:00 +29°C° 0.2 mm 2 m/S 745 mmHg 86%
    10:00 +29°C° 0.2 mm 2 m/S 745 mmHg 82%
    11:00 +30°C° 0.2 mm 2 m/S 745 mmHg 78%
    12:00 +31°C° 0.3 mm 2 m/S 744 mmHg 78%
    13:00 +31°C° 0.3 mm 2 m/S 744 mmHg 77%
    14:00 +31°C° 0.3 mm 2 m/S 743 mmHg 77%
    15:00 +32°C° 0.5 mm 2 m/S 743 mmHg 77%
    16:00 +32°C° 0.5 mm 2 m/S 743 mmHg 77%
    17:00 +32°C° 0.5 mm 2 m/S 743 mmHg 77%
    18:00 +30°C° 1.1 mm 2 m/S 743 mmHg 83%
    19:00 +28°C° 1.1 mm 1 m/S 743 mmHg 89%
    20:00 +25°C° 1.1 mm 0 m/S 744 mmHg 95%
    21:00 +25°C° 0 mm 0 m/S 744 mmHg 95%
    22:00 +25°C° 0 mm 0 m/S 744 mmHg 95%
    23:00 +26°C° 0 mm 1 m/S 744 mmHg 94%

    Morgen, 4 Juni, Donnerstag

    Zeit Temperatur Niederschläge Wind Luftdruck Luftfeuchtigkeit
    00:00 +26°C° 0.2 mm 1 m/S 744 mmHg 95%
    01:00 +26°C° 0.2 mm 1 m/S 744 mmHg 95%
    02:00 +26°C° 0.2 mm 1 m/S 743 mmHg 96%
    03:00 +26°C° 0.6 mm 1 m/S 743 mmHg 96%
    04:00 +26°C° 0.6 mm 1 m/S 743 mmHg 96%
    05:00 +26°C° 0.6 mm 1 m/S 743 mmHg 97%
    06:00 +26°C° 0 mm 1 m/S 744 mmHg 95%
    07:00 +27°C° 0 mm 1 m/S 744 mmHg 93%
    08:00 +28°C° 0 mm 1 m/S 744 mmHg 91%
    09:00 +30°C° 0 mm 2 m/S 744 mmHg 82%
    10:00 +33°C° 0 mm 3 m/S 744 mmHg 72%
    11:00 +34°C° 0 mm 3 m/S 744 mmHg 63%
    12:00 +35°C° 0.2 mm 4 m/S 744 mmHg 63%
    13:00 +35°C° 0.2 mm 4 m/S 743 mmHg 62%
    14:00 +35°C° 0.2 mm 5 m/S 743 mmHg 61%
    15:00 +35°C° 0.3 mm 4 m/S 742 mmHg 65%
    16:00 +34°C° 0.3 mm 4 m/S 742 mmHg 69%
    17:00 +33°C° 0.3 mm 4 m/S 742 mmHg 73%
    18:00 +30°C° 0 mm 3 m/S 742 mmHg 78%
    19:00 +29°C° 0 mm 2 m/S 742 mmHg 84%
    20:00 +27°C° 0 mm 1 m/S 743 mmHg 89%
    21:00 +27°C° 0 mm 1 m/S 743 mmHg 90%
    22:00 +27°C° 0 mm 1 m/S 743 mmHg 91%
    23:00 +27°C° 0 mm 1 m/S 743 mmHg 92%

    übermorgen, 5 Juni, Freitag

    Zeit Temperatur Niederschläge Wind Luftdruck Luftfeuchtigkeit
    00:00 +27°C° 0.1 mm 1 m/S 743 mmHg 92%
    01:00 +25°C° 0.1 mm 0 m/S 743 mmHg 92%
    02:00 +25°C° 0.1 mm 0 m/S 743 mmHg 92%
    03:00 +25°C° 0.1 mm 0 m/S 743 mmHg 93%
    04:00 +27°C° 0.1 mm 1 m/S 743 mmHg 93%
    05:00 +27°C° 0.1 mm 1 m/S 742 mmHg 94%
    06:00 +27°C° 0 mm 1 m/S 743 mmHg 90%
    07:00 +28°C° 0 mm 1 m/S 743 mmHg 87%
    08:00 +29°C° 0 mm 1 m/S 743 mmHg 84%
    09:00 +30°C° 0.5 mm 2 m/S 743 mmHg 81%
    10:00 +31°C° 0.5 mm 2 m/S 743 mmHg 78%
    11:00 +33°C° 0.5 mm 3 m/S 743 mmHg 76%
    12:00 +33°C° 0.8 mm 3 m/S 743 mmHg 76%
    13:00 +33°C° 0.8 mm 3 m/S 742 mmHg 77%
    14:00 +33°C° 0.8 mm 3 m/S 742 mmHg 78%
    15:00 +31°C° 1.4 mm 2 m/S 742 mmHg 83%
    16:00 +30°C° 1.4 mm 2 m/S 741 mmHg 88%
    17:00 +29°C° 1.4 mm 1 m/S 741 mmHg 92%
    18:00 +28°C° 1.3 mm 1 m/S 742 mmHg 93%
    19:00 +28°C° 1.3 mm 1 m/S 742 mmHg 94%
    20:00 +25°C° 1.3 mm 0 m/S 742 mmHg 94%
    21:00 +25°C° 0.4 mm 0 m/S 742 mmHg 95%
    22:00 +27°C° 0.4 mm 1 m/S 743 mmHg 95%
    23:00 +27°C° 0.4 mm 1 m/S 743 mmHg 95%

    6 Juni, Samstag

    Zeit Temperatur Niederschläge Wind Luftdruck Luftfeuchtigkeit
    00:00 +27°C° 0.7 mm 1 m/S 742 mmHg 96%
    01:00 +27°C° 0.7 mm 1 m/S 742 mmHg 97%
    02:00 +26°C° 0.7 mm 1 m/S 742 mmHg 98%
    03:00 +26°C° 1.6 mm 1 m/S 742 mmHg 98%
    04:00 +26°C° 1.6 mm 1 m/S 742 mmHg 98%
    05:00 +26°C° 1.6 mm 1 m/S 742 mmHg 98%
    06:00 +27°C° 0.8 mm 1 m/S 742 mmHg 97%
    07:00 +27°C° 0.8 mm 1 m/S 742 mmHg 96%
    08:00 +27°C° 0.8 mm 1 m/S 743 mmHg 95%
    09:00 +28°C° 0.6 mm 1 m/S 743 mmHg 94%
    10:00 +28°C° 0.6 mm 1 m/S 743 mmHg 94%
    11:00 +28°C° 0.6 mm 1 m/S 743 mmHg 93%
    12:00 +28°C° 0.7 mm 1 m/S 743 mmHg 92%
    13:00 +28°C° 0.7 mm 1 m/S 743 mmHg 91%
    14:00 +28°C° 0.7 mm 2 m/S 742 mmHg 90%
    15:00 +28°C° 0.4 mm 1 m/S 742 mmHg 92%
    16:00 +27°C° 0.4 mm 1 m/S 742 mmHg 94%
    17:00 +27°C° 0.4 mm 1 m/S 742 mmHg 96%
    18:00 +27°C° 0 mm 1 m/S 742 mmHg 96%
    19:00 +26°C° 0 mm 1 m/S 742 mmHg 96%
    20:00 +26°C° 0 mm 1 m/S 743 mmHg 96%
    21:00 +26°C° 0 mm 1 m/S 743 mmHg 96%
    22:00 +24°C° 0 mm 0 m/S 743 mmHg 96%
    23:00 +24°C° 0 mm 0 m/S 744 mmHg 96%

    7 Juni, Sonntag

    Zeit Temperatur Niederschläge Wind Luftdruck Luftfeuchtigkeit
    00:00 +24°C° 0 mm 0 m/S 743 mmHg 96%
    01:00 +24°C° 0 mm 0 m/S 743 mmHg 97%
    02:00 +24°C° 0 mm 0 m/S 743 mmHg 97%
    03:00 +24°C° 0.1 mm 0 m/S 743 mmHg 97%
    04:00 +23°C° 0.1 mm 0 m/S 743 mmHg 97%
    05:00 +23°C° 0.1 mm 0 m/S 743 mmHg 97%
    06:00 +24°C° 0.1 mm 0 m/S 743 mmHg 96%
    07:00 +25°C° 0.1 mm 0 m/S 743 mmHg 94%
    08:00 +25°C° 0.1 mm 0 m/S 744 mmHg 93%
    09:00 +28°C° 0.9 mm 1 m/S 744 mmHg 92%
    10:00 +28°C° 0.9 mm 1 m/S 744 mmHg 92%
    11:00 +28°C° 0.9 mm 2 m/S 744 mmHg 91%
    12:00 +29°C° 1.1 mm 2 m/S 743 mmHg 87%
    13:00 +30°C° 1.1 mm 3 m/S 743 mmHg 83%
    14:00 +31°C° 1.1 mm 3 m/S 742 mmHg 79%
    15:00 +30°C° 0.6 mm 3 m/S 742 mmHg 83%
    16:00 +29°C° 0.6 mm 2 m/S 742 mmHg 88%
    17:00 +27°C° 0.6 mm 2 m/S 741 mmHg 92%
    18:00 +27°C° 0.3 mm 1 m/S 742 mmHg 94%
    19:00 +26°C° 0.3 mm 1 m/S 742 mmHg 95%
    20:00 +26°C° 0.3 mm 1 m/S 742 mmHg 97%
    21:00 +26°C° 0 mm 1 m/S 743 mmHg 97%
    22:00 +26°C° 0 mm 1 m/S 743 mmHg 97%
    23:00 +26°C° 0 mm 1 m/S 743 mmHg 97%

    8 Juni, Montag

    Zeit Temperatur Niederschläge Wind Luftdruck Luftfeuchtigkeit
    00:00 +26°C° 0 mm 1 m/S 743 mmHg 97%
    01:00 +26°C° 0 mm 1 m/S 743 mmHg 97%
    02:00 +25°C° 0 mm 1 m/S 742 mmHg 97%
    03:00 +25°C° 0 mm 1 m/S 742 mmHg 98%
    04:00 +25°C° 0 mm 1 m/S 742 mmHg 98%
    05:00 +25°C° 0 mm 1 m/S 743 mmHg 98%
    06:00 +26°C° 0 mm 1 m/S 743 mmHg 97%
    07:00 +26°C° 0 mm 1 m/S 743 mmHg 96%
    08:00 +27°C° 0 mm 1 m/S 744 mmHg 95%
    09:00 +27°C° 0.1 mm 1 m/S 744 mmHg 93%
    10:00 +28°C° 0.1 mm 1 m/S 744 mmHg 91%
    11:00 +28°C° 0.1 mm 2 m/S 744 mmHg 89%
    12:00 +28°C° 0.2 mm 2 m/S 744 mmHg 87%
    13:00 +29°C° 0.2 mm 3 m/S 744 mmHg 85%
    14:00 +29°C° 0.2 mm 3 m/S 743 mmHg 83%
    15:00 +28°C° 0.3 mm 3 m/S 743 mmHg 86%
    16:00 +28°C° 0.3 mm 2 m/S 743 mmHg 89%
    17:00 +27°C° 0.3 mm 2 m/S 743 mmHg 93%
    18:00 +26°C° 0 mm 2 m/S 743 mmHg 94%
    19:00 +26°C° 0 mm 1 m/S 744 mmHg 95%
    20:00 +25°C° 0 mm 1 m/S 744 mmHg 96%
    21:00 +25°C° 0 mm 1 m/S 744 mmHg 96%
    22:00 +25°C° 0 mm 1 m/S 744 mmHg 97%
    23:00 +25°C° 0 mm 1 m/S 745 mmHg 97%
    Mehr zeigen